Zurück zum Katalog

ATLAS 5 CENTAUR DEB

LostHEO
NORAD 53517·DEBRIS·🇺🇸 United States

Gestartet Sep 17, 2014 von Cape Canaveral Space Force Station

Loading…

Nächste Überflüge (nächste 24 Stunden)

TLE

VeraltetSource: Space-Track

Epoche: Nov 16, 2022, 13:24 UTC

1 53517U 14055DQ  22320.55841822 -.00000088  00000-0  00000+0 0  9996
2 53517  21.1545 313.5539 3751771 220.4712 104.5288  1.72088296  2079

Verfolge ATLAS 5 CENTAUR DEB in Echtzeit mit AllMySat

Download on the App Store